Satellite: LIBERT
Catalog number: 31129
Epoch time:      08024.66663921
Element set:     697
Inclination:      098.0586 deg
RA of node:       094.1250 deg
Eccentricity:    0.0103435
Arg of perigee:   061.9602 deg
Mean anomaly:     299.1988 deg
Mean motion:   14.51998234 rev/day
Decay rate:       3.39e-06 rev/day^2
Epoch rev:            4094
Checksum:              321

/EX
SB KEPS @ AMSAT  $ORB08024.W
Orbital Elements  08024.WEATHER

HR AMSAT ORBITAL ELEMENTS FOR WEATHER SATELLITES
FROM WA5QGD FORT WORTH,TX January 24, 2008
Send Subscribe/unsubscribe to KEPS at 
http://www.amsat.org/mailman/listinfo/keps
BID: ORB08024.W
TO ALL RADIO AMATEURS BT

Satellite: NOAA-10
Catalog number: 16969
Epoch time:      08024.46946373
Element set:     977
Inclination:      098.7335 deg
RA of node:       046.6455 deg
Eccentricity:    0.0011639
Arg of perigee:   242.0236 deg
Mean anomaly:     117.9761 deg
Mean motion:   14.27348359 rev/day
Decay rate:       -2.4e-07 rev/day^2
Epoch rev:           11079
Checksum:              329

Satellite: NOAA-11
Catalog number: 19531
Epoch time:      08024.26750638
Element set:      12
Inclination:      098.8028 deg
RA of node:       115.6091 deg
Eccentricity:    0.0012130
Arg of perigee:   119.1533 deg
Mean anomaly:     241.0842 deg
Mean motion:   14.14862758 rev/day
Decay rate:      -2.20e-06 rev/day^2
Epoch rev:           99741
Checksum:              275

Satellite: NOAA-12
Catalog number: 21263
Epoch time:      08024.26103951
Element set:     517
Inclination:      098.7631 deg
RA of node:       026.2471 deg
Eccentricity:    0.0012381
Arg of perigee:   182.4627 deg
Mean anomaly:     177.6521 deg
Mean motion:   14.25513339 rev/day
Decay rate:       -3.1e-07 rev/day^2
Epoch rev:           86774
Checksum:              285

Satellite: MET-3/5
Catalog number: 21655
Epoch time:      08024.24362814
Element set:     381
Inclination:      082.5493 deg
RA of node:       206.7540 deg
Eccentricity:    0.0014234
Arg of perigee:   019.8853 deg
Mean anomaly:     340.2822 deg
Mean motion:   13.17014005 rev/day
Decay rate:        5.1e-07 rev/day^2
Epoch rev:           79050
Checksum:              267

Satellite: MET-2/21
Catalog number: 22782
Epoch time:      08024.00177191
Element set:      45
Inclination:      082.5446 deg
RA of node:       226.7312 deg
Eccentricity:    0.0022111
Arg of perigee:   340.8961 deg
Mean anomaly:     019.1370 deg
Mean motion:   13.83625218 rev/day
Decay rate:       1.09e-06 rev/day^2
Epoch rev:           72705
Checksum:              266

Satellite: OKEAN-4
Catalog number: 23317
Epoch time:      08024.08631984
Element set:     487
Inclination:      082.5388 deg
RA of node:       090.4663 deg
Eccentricity:    0.0020516
Arg of perigee:   243.2394 deg
Mean anomaly:     116.6729 deg
Mean motion:   14.82571988 rev/day
Decay rate:        9.6e-07 rev/day^2
Epoch rev:           71678
Checksum:              335

Satellite: NOAA-14
Catalog number: 23455
Epoch time:      08024.46159673
Element set:     989
Inclination:      098.9642 deg
RA of node:       096.5301 deg
Eccentricity:    0.0009456
Arg of perigee:   189.5381 deg
Mean anomaly:     170.5648 deg
Mean motion:   14.13734943 rev/day
Decay rate:       3.12e-06 rev/day^2
Epoch rev:           67390
Checksum:              337

Satellite: SICH-1
Catalog number: 23657
Epoch time:      08024.07661042
Element set:     286
Inclination:      082.5244 deg
RA of node:       231.4108 deg
Eccentricity:    0.0022405
Arg of perigee:   235.3098 deg
Mean anomaly:     124.6034 deg
Mean motion:   14.81545933 rev/day
Decay rate:       1.20e-06 rev/day^2
Epoch rev:           66873
Checksum:              273

Satellite: NOAA-15
Catalog number: 25338
Epoch time:      08024.47213990
Element set:     326
Inclination:      098.5454 deg
RA of node:       020.0759 deg
Eccentricity:    0.0011559
Arg of perigee:   102.7671 deg
Mean anomaly:     257.4817 deg
Mean motion:   14.24682804 rev/day
Decay rate:       -7.6e-07 rev/day^2
Epoch rev:           50419
Checksum:              307

Satellite: RESURS
Catalog number: 25394
Epoch time:      08024.16852123
Element set:     839
Inclination:      098.4083 deg
RA of node:       074.5857 deg
Eccentricity:    0.0000715
Arg of perigee:   288.7485 deg
Mean anomaly:     071.3618 deg
Mean motion:   14.24152373 rev/day
Decay rate:       -2.7e-07 rev/day^2
Epoch rev:           49580
Checksum:              312

Satellite: FENGYUN1
Catalog number: 25730
Epoch time:      08024.55705102
Element set:     323
Inclination:      098.7120 deg
RA of node:       005.3029 deg
Eccentricity:    0.0020262
Arg of perigee:   217.1754 deg
Mean anomaly:     142.8012 deg
Mean motion:   14.07672738 rev/day
Decay rate:       5.40e-06 rev/day^2
Epoch rev:           44861
Checksum:              254

Satellite: OKEAN-0
Catalog number: 25860
Epoch time:      08024.00069475
Element set:     271
Inclination:      097.7403 deg
RA of node:       021.0473 deg
Eccentricity:    0.0001762
Arg of perigee:   052.9676 deg
Mean anomaly:     307.1685 deg
Mean motion:   14.73498550 rev/day
Decay rate:        5.8e-07 rev/day^2
Epoch rev:           45801
Checksum:              292

